This demonstration page uses our WeatherBlox Daily Observations layout. Learn more.

Hourly Observations for July 19, 2019

Temp ( °F °C ) Dew Point ( °F °C ) Humidity (%) Winds ( mph kmh ) Pressure ( in mb ) Visibility ( mi km ) Precip ( " mm )
12:15 am 00:15 Clear 80 26.5 73 22.6 79 79 S 9 15 29.62 1003 10 16.09344 0 0
12:35 am 00:35 Clear 79 26 73 22.6 82 82 S 9 15 29.62 1003 10 16.09344 0 0
12:55 am 00:55 Clear 80 26.7 72 22.1 76 76 S 12 19 29.65 1004 10 16.09344 0 0
1:15 am 01:15 Clear 80 26.5 72 22 76 76 S 12 19 29.65 1004 10 16.09344 0 0
1:35 am 01:35 Clear 79 26.2 71 21.7 76 76 S 10 17 29.65 1004 10 16.09344 0 0
1:55 am 01:55 Clear 79 26.3 71 21.5 75 75 S 9 15 29.65 1004 10 16.09344 0 0
2:15 am 02:15 Clear 79 26.1 70 21.2 74 74 S 12 19 29.65 1004 10 16.09344 0 0
2:35 am 02:35 Clear 80 26.4 70 21.1 73 73 S 13 20 29.65 1004 10 16.09344 0 0
2:55 am 02:55 Clear 79 26.3 70 21.2 74 74 S 12 19 29.62 1003 10 16.09344 0 0
3:15 am 03:15 Clear 79 26.1 70 21.2 74 74 S 12 19 29.62 1003 10 16.09344 0 0
3:35 am 03:35 Clear 79 26 70 21.1 74 74 SSW 10 17 29.62 1003 10 16.09344 0 0
3:55 am 03:55 Clear 79 25.9 70 21.1 75 75 SSW 14 22 29.62 1003 10 16.09344 0 0
4:15 am 04:15 Clear 78 25.7 70 21.2 76 76 S 12 19 29.62 1003 10 16.09344 0 0
4:35 am 04:35 Clear 78 25.5 70 21.1 77 77 S 10 17 29.62 1003 10 16.09344 0 0
4:55 am 04:55 Clear 78 25.4 70 21 77 77 SSW 14 22 29.62 1003 10 16.09344 0 0
5:15 am 05:15 Clear 77 25.1 70 21 78 78 SSW 12 19 29.62 1003 10 16.09344 0 0
5:35 am 05:35 Clear 77 25 70 21 79 79 S 12 19 29.62 1003 10 16.09344 0 0
5:55 am 05:55 Clear 76 24.6 70 21 80 80 S 10 17 29.62 1003 10 16.09344 0 0
6:15 am 06:15 Clear 76 24.5 70 20.9 80 80 S 9 15 29.62 1003 10 16.09344 0 0
6:35 am 06:35 Sunny 76 24.2 70 21 82 82 S 9 15 29.65 1004 10 16.09344 0 0
6:55 am 06:55 Sunny 75 24 70 21 83 83 S 9 15 29.65 1004 10 16.09344 0 0
7:15 am 07:15 Sunny 76 24.2 70 21 82 82 S 9 15 29.68 1005 10 16.09344 0 0
7:35 am 07:35 Sunny 76 24.7 70 21 80 80 SSW 10 17 29.65 1004 10 16.09344 0 0
7:55 am 07:55 Sunny 77 25.2 70 21.1 78 78 S 10 17 29.65 1004 10 16.09344 0 0
8:15 am 08:15 Sunny 78 25.8 70 21.1 75 75 SSW 14 22 29.65 1004 10 16.09344 0 0
8:35 am 08:35 Sunny 80 26.5 70 21.2 73 73 SSW 12 19 29.65 1004 10 16.09344 0 0
8:55 am 08:55 Sunny 81 27.1 70 21.3 71 71 SSW 15 24 29.65 1004 10 16.09344 0 0
9:15 am 09:15 Sunny 82 27.5 70 21.2 69 69 SSW 15 24 29.65 1004 10 16.09344 0 0
9:35 am 09:35 Sunny 82 28 70 21.1 66 66 SSW 17 28 29.65 1004 10 16.09344 0 0
9:55 am 09:55 Sunny 83 28.4 71 21.5 66 66 SSW 16 26 29.62 1003 10 16.09344 0 0
10:15 am 10:15 Sunny 84 28.8 72 22 67 67 SSW 13 20 29.62 1003 10 16.09344 0 0
10:35 am 10:35 Sunny 85 29.5 72 22.1 64 64 SSW 12 19 29.62 1003 10 16.09344 0 0
10:55 am 10:55 Sunny 86 30 72 22.1 63 63 SSW 8 13 29.62 1003 10 16.09344 0 0
11:15 am 11:15 Sunny 86 30.2 72 22 62 62 SSW 10 17 29.62 1003 10 16.09344 0 0
11:35 am 11:35 Sunny 88 30.9 73 22.6 61 61 SSW 12 19 29.62 1003 10 16.09344 0 0
11:55 am 11:55 Sunny 88 31.2 72 22.4 60 60 SSW 12 19 29.62 1003 10 16.09344 0 0
12:15 pm 12:15 Sunny 89 31.6 73 22.7 59 59 S 12 19 29.62 1003 10 16.09344 0 0
12:35 pm 12:35 Sunny 89 31.9 73 23 59 59 S 9 15 29.62 1003 10 16.09344 0 0
12:55 pm 12:55 Sunny 91 32.5 73 22.9 57 57 S 10 17 29.59 1002 10 16.09344 0 0
1:15 pm 13:15 Sunny 91 32.9 73 23 56 56 S 9 15 29.59 1002 10 16.09344 0 0
1:35 pm 13:35 Sunny 92 33.3 74 23.6 57 57 SSE 10 17 29.59 1002 10 16.09344 0 0
1:55 pm 13:55 Sunny 93 33.8 74 23.3 54 54 S 12 19 29.59 1002 10 16.09344 0 0
2:15 pm 14:15 Sunny 93 34.1 73 23 52 52 S 15 24 29.59 1002 10 16.09344 0 0
2:35 pm 14:35 Sunny 94 34.5 75 23.9 54 54 SSE 9 15 29.59 1002 10 16.09344 0 0
2:55 pm 14:55 Sunny 95 34.8 75 24 53 53 SSE 12 19 29.59 1002 10 16.09344 0 0
3:15 pm 15:15 Sunny 95 34.9 74 23.5 52 52 SSE 10 17 29.59 1002 10 16.09344 0 0
3:35 pm 15:35 Sunny 95 35.2 75 23.7 51 51 SSE 10 17 29.56 1001 10 16.09344 0 0
3:55 pm 15:55 Sunny 96 35.5 74 23.6 50 50 SSE 12 19 29.56 1001 10 16.09344 0 0
4:15 pm 16:15 Sunny 97 35.9 74 23.5 49 49 SSE 9 15 29.53 1000 10 16.09344 0 0
4:35 pm 16:35 Sunny 97 36 77 24.9 53 53 SSE 8 13 29.53 1000 10 16.09344 0 0
4:55 pm 16:55 Sunny 97 36.2 77 25.2 53 53 SE 9 15 29.53 1000 10 16.09344 0 0
5:15 pm 17:15 Sunny 97 35.9 77 25 53 53 SSE 8 13 29.53 1000 10 16.09344 0 0
5:35 pm 17:35 Sunny 96 35.5 77 25.2 55 55 SSE 8 13 29.53 1000 10 16.09344 0 0
5:55 pm 17:55 Sunny 96 35.3 77 24.9 55 55 SSE 9 15 29.53 1000 10 16.09344 0 0
6:15 pm 18:15 Sunny 95 35.1 77 24.9 55 55 SSE 8 13 29.53 1000 10 16.09344 0 0
6:35 pm 18:35 Sunny 95 34.8 77 25.2 57 57 SE 8 13 29.53 1000 10 16.09344 0 0
6:55 pm 18:55 Sunny 94 34.3 77 25.1 59 59 SSE 8 13 29.53 1000 10 16.09344 0 0
7:15 pm 19:15 Sunny 93 33.8 76 24.6 59 59 SSE 9 15 29.53 1000 10 16.09344 0 0
7:35 pm 19:35 Sunny 91 33 76 24.4 61 61 SSE 8 13 29.53 1000 10 16.09344 0 0
7:55 pm 19:55 Sunny 90 32.3 75 24 62 62 SSE 7 11 29.53 1000 10 16.09344 0 0
8:15 pm 20:15 Sunny 89 31.6 74 23.5 62 62 SSE 7 11 29.53 1000 10 16.09344 0 0
8:35 pm 20:35 Sunny 87 30.6 74 23.2 65 65 SSE 7 11 29.59 1002 10 16.09344 0 0
8:55 pm 20:55 Sunny 86 30 73 22.6 65 65 SSE 7 11 29.59 1002 10 16.09344 0 0
9:15 pm 21:15 Clear 84 29.1 72 22.2 66 66 SSE 7 11 29.59 1002 10 16.09344 0 0
9:35 pm 21:35 Clear 83 28.6 72 22.2 68 68 SSE 7 11 29.59 1002 10 16.09344 0 0
9:55 pm 21:55 Clear 84 28.7 71 21.9 67 67 SSE 9 15 29.59 1002 10 16.09344 0 0
10:15 pm 22:15 Clear 84 29 71 21.5 64 64 SSE 9 15 29.62 1003 10 16.09344 0 0
10:35 pm 22:35 Clear 84 29 70 21 62 62 SSE 10 17 29.62 1003 10 16.09344 0 0
10:55 pm 22:55 Clear 84 29 69 20.5 60 60 S 12 19 29.62 1003 10 16.09344 0 0
11:15 pm 23:15 Clear 84 28.8 68 20.2 60 60 S 13 20 29.62 1003 10 16.09344 0 0
11:35 pm 23:35 Clear 84 28.7 68 20 59 59 S 12 19 29.62 1003 10 16.09344 0 0
11:55 pm 23:55 Clear 83 28.2 68 19.8 60 60 S 10 17 29.65 1004 10 16.09344 0 0

Powered by AerisWeather